Waarnemingen

Advertentie
Mijn weer
Skillinge, Zweden (2625): temperatuur & dauwpunt: 20.05.2019 15:00:00 - 26.05.2019 15:00:00 (CEST)Skillinge, Zweden (2625): windsnelheid & windstoten: 20.05.2019 15:00:00 - 26.05.2019 15:00:00 (CEST)Skillinge, Zweden (2625): windrichting: 20.05.2019 15:00:00 - 26.05.2019 15:00:00 (CEST)Skillinge, Zweden (2625): luchtdruk: 20.05.2019 15:00:00 - 26.05.2019 15:00:00 (CEST)Skillinge, Zweden (2625): zicht: 20.05.2019 15:00:00 - 26.05.2019 15:00:00 (CEST)Skillinge, Zweden (2625): neerslag: 20.05.2019 15:00:00 - 26.05.2019 15:00:00 (CEST)
Datum & Tijd tt [°C] td [°C] ff [km/u] ff [kn] fx [km/u] fx [kn] dd ppp [hPa] vv [km] rr [mm]
26.05.2019 15:00:00 - - - - - - - - - -
26.05.2019 14:00:00 11,9 9,8 33 18 61 33 WZW 1004,9 10 0,0
26.05.2019 13:00:00 11,5 9,4 27 15 49 26 ZW 1005,2 19 0,0
26.05.2019 12:00:00 11,0 9,4 31 17 53 29 ZW 1005,6 8 0,0
26.05.2019 11:00:00 10,9 9,3 31 17 48 26 ZW 1006,0 7 0,1
26.05.2019 10:00:00 10,9 9,0 30 16 48 26 ZW 1006,5 29 0,0
26.05.2019 09:00:00 10,6 9,2 28 15 44 24 ZW 1007,0 8 0,1
26.05.2019 08:00:00 11,1 8,1 24 13 36 20 WZW 1007,5 30 0,1
26.05.2019 07:00:00 10,5 6,8 24 13 40 21 WZW 1008,1 46 0,0
26.05.2019 06:00:00 10,2 6,2 22 12 34 18 WZW 1008,2 50 0,0
26.05.2019 05:00:00 10,2 5,8 14 7 33 18 W 1008,8 50 0,0
26.05.2019 04:00:00 10,7 5,5 17 9 34 18 W 1008,8 50 0,0
26.05.2019 03:00:00 11,0 7,3 19 10 29 16 WZW 1009,1 50 0,0
26.05.2019 02:00:00 10,3 7,4 16 9 27 14 WZW 1009,7 50 0,0
26.05.2019 01:00:00 9,0 5,7 11 6 19 10 WZW 1010,4 50 0,0
26.05.2019 00:00:00 10,0 5,8 13 7 27 15 W 1010,7 50 0,0
25.05.2019 23:00:00 11,0 8,4 11 6 20 11 W 1010,7 45 0,0
25.05.2019 22:00:00 11,1 9,7 9 5 16 9 W 1010,4 20 0,0
25.05.2019 21:00:00 11,8 9,7 13 7 28 15 WZW 1010,3 23 0,0
25.05.2019 20:00:00 13,6 9,3 18 10 31 17 WZW 1010,5 29 0,0
25.05.2019 19:00:00 14,4 8,8 25 14 36 20 WZW 1010,7 26 0,0
25.05.2019 18:00:00 15,3 9,2 23 12 40 21 WZW 1010,9 37 0,0
25.05.2019 17:00:00 16,0 9,0 27 15 40 22 WZW 1011,2 35 0,0
25.05.2019 16:00:00 16,2 9,1 26 14 38 21 WZW 1011,3 34 0,0
25.05.2019 15:00:00 15,8 9,2 20 11 33 18 WZW 1011,4 35 0,0
25.05.2019 14:00:00 16,0 9,0 16 9 27 14 W 1011,4 37 0,0
25.05.2019 13:00:00 14,9 8,6 14 8 27 15 W 1011,5 43 0,0
25.05.2019 12:00:00 14,2 8,6 16 9 27 15 W 1011,6 38 0,0
25.05.2019 11:00:00 15,3 8,5 15 8 26 14 W 1011,2 32 0,0
25.05.2019 10:00:00 14,0 8,2 15 8 27 15 W 1010,8 37 0,0
25.05.2019 09:00:00 13,5 7,7 18 10 29 16 W 1010,5 39 0,0
25.05.2019 08:00:00 12,4 7,3 17 9 33 18 W 1010,2 45 0,0
25.05.2019 07:00:00 11,0 8,2 11 6 18 10 W 1010,1 37 0,0
25.05.2019 06:00:00 8,9 7,5 6 3 11 6 W 1009,9 28 0,0
25.05.2019 05:00:00 7,1 5,9 9 5 11 6 W 1009,7 31 0,0
25.05.2019 04:00:00 7,2 5,8 6 3 9 5 W 1009,7 43 0,0
25.05.2019 03:00:00 8,4 6,5 5 3 11 6 WZW 1009,6 46 0,0
25.05.2019 02:00:00 7,2 5,8 7 4 10 5 W 1009,5 48 0,0
25.05.2019 01:00:00 7,9 7,1 5 3 9 5 WZW 1009,6 37 0,0
25.05.2019 00:00:00 8,3 7,2 6 3 10 5 W 1009,5 44 0,0
24.05.2019 23:00:00 8,3 7,4 4 2 13 7 WZW 1009,3 48 0,0
24.05.2019 22:00:00 10,3 8,4 8 4 22 12 W 1009,2 50 0,0
24.05.2019 21:00:00 12,7 9,7 11 6 21 12 WZW 1008,9 44 0,0
24.05.2019 20:00:00 12,4 10,5 9 5 16 9 WNW 1008,9 32 0,1
24.05.2019 19:00:00 13,3 10,8 11 6 36 20 WNW 1008,6 15 0,0
24.05.2019 18:00:00 16,0 8,7 22 12 39 21 WZW 1008,6 31 0,0
24.05.2019 17:00:00 17,2 7,8 26 14 45 24 ZW 1008,9 39 0,0
24.05.2019 16:00:00 14,6 8,3 26 14 48 26 ZZW 1009,5 34 0,0
24.05.2019 15:00:00 14,4 8,6 24 13 44 24 ZZW 1009,8 30 0,0
24.05.2019 14:00:00 14,0 10,0 24 13 43 23 ZZW 1010,3 20 0,0
24.05.2019 13:00:00 16,9 6,7 29 15 41 22 ZW 1010,5 31 0,0
24.05.2019 12:00:00 16,5 6,6 29 15 42 23 WZW 1010,8 44 0,0
24.05.2019 11:00:00 15,7 8,0 23 12 35 19 WZW 1011,2 34 0,0
24.05.2019 10:00:00 14,7 9,3 25 13 39 21 WZW 1011,4 27 0,0
24.05.2019 09:00:00 14,9 8,1 24 13 41 22 ZW 1011,6 38 0,0
24.05.2019 08:00:00 14,1 7,8 25 13 40 22 ZW 1012,0 48 0,0
24.05.2019 07:00:00 14,2 7,5 24 13 36 19 WZW 1012,3 45 0,0
24.05.2019 06:00:00 12,3 7,6 13 7 19 11 WZW 1012,6 46 0,0
24.05.2019 05:00:00 10,7 7,4 10 5 19 10 WZW 1013,1 43 0,0
24.05.2019 04:00:00 10,4 8,0 11 6 17 9 WZW 1013,3 22 0,0
24.05.2019 03:00:00 9,4 7,7 7 4 10 6 ZW 1013,8 9 0,0
24.05.2019 02:00:00 8,3 7,2 7 4 9 5 ZW 1014,4 6 0,0
24.05.2019 01:00:00 9,1 7,5 7 4 12 6 ZW 1014,7 9 0,0
24.05.2019 00:00:00 9,8 7,7 8 4 14 7 W 1015,1 12 0,0
23.05.2019 23:00:00 10,4 8,2 10 6 14 8 W 1015,4 17 0,0
23.05.2019 22:00:00 10,9 8,5 9 5 17 9 W 1015,4 18 0,0
23.05.2019 21:00:00 12,5 8,8 9 5 20 11 WZW 1015,5 29 0,0
23.05.2019 20:00:00 13,3 8,6 14 8 27 15 WZW 1015,3 39 0,0
23.05.2019 19:00:00 15,1 8,3 19 11 34 18 WZW 1015,2 43 0,0
23.05.2019 18:00:00 16,6 8,6 19 11 32 17 WZW 1015,0 41 0,0
23.05.2019 17:00:00 19,1 7,5 15 8 28 15 W 1015,2 38 0,0
23.05.2019 16:00:00 18,8 6,3 18 10 29 16 W 1015,4 43 0,0
23.05.2019 15:00:00 18,3 7,7 16 9 27 15 WNW 1015,5 47 0,0
23.05.2019 14:00:00 17,6 8,5 18 10 25 14 W 1015,8 34 0,0
23.05.2019 13:00:00 15,4 8,2 13 7 29 16 WNW 1016,2 40 0,0
23.05.2019 12:00:00 14,7 7,5 17 9 29 15 WNW 1016,2 43 0,0
23.05.2019 11:00:00 15,7 8,2 17 9 31 17 W 1015,9 41 0,0
23.05.2019 10:00:00 14,6 7,4 13 7 27 15 WNW 1015,8 47 0,0
23.05.2019 09:00:00 13,3 7,7 14 7 25 14 WNW 1015,5 40 0,0
23.05.2019 08:00:00 12,8 6,4 16 8 26 14 WNW 1015,0 32 0,0
23.05.2019 07:00:00 9,8 7,4 9 5 19 10 WNW 1014,6 41 0,0
23.05.2019 06:00:00 10,7 7,0 12 7 25 13 WNW 1014,1 44 0,0
23.05.2019 05:00:00 10,7 7,6 16 9 26 14 WNW 1013,6 46 0,0
23.05.2019 04:00:00 10,3 7,9 16 8 32 18 WNW 1013,4 43 0,0
23.05.2019 03:00:00 11,3 7,6 21 11 35 19 WNW 1013,1 50 0,0
23.05.2019 02:00:00 11,5 7,8 20 11 30 16 NW 1013,2 43 0,0
23.05.2019 01:00:00 11,8 8,5 22 12 36 19 WNW 1012,8 39 0,0
23.05.2019 00:00:00 11,7 9,3 14 8 30 16 WNW 1012,9 32 0,0
22.05.2019 23:00:00 12,1 9,8 11 6 29 16 NW 1012,9 22 0,0
22.05.2019 22:00:00 12,2 10,1 23 12 41 22 NW 1012,2 46 0,0
22.05.2019 21:00:00 12,8 10,5 29 15 43 23 NW 1011,5 48 0,0
22.05.2019 20:00:00 13,7 11,6 27 15 40 22 WNW 1010,8 24 0,0
22.05.2019 19:00:00 15,6 12,4 24 13 38 20 WNW 1010,3 31 0,0
22.05.2019 18:00:00 17,4 13,7 23 12 38 21 WNW 1009,6 18 0,0
22.05.2019 17:00:00 21,2 15,9 18 10 29 16 WNW 1009,3 25 0,0
22.05.2019 16:00:00 22,5 17,4 9 5 19 10 WNW 1008,9 23 0,0
22.05.2019 15:00:00 14,9 12,6 6 3 9 5 ONO 1009,0 14 0,0
22.05.2019 14:00:00 15,8 13,1 4 2 9 5 Z 1009,3 15 0,0
22.05.2019 13:00:00 14,1 12,5 5 3 11 6 ZZO 1009,7 8 0,0
22.05.2019 12:00:00 12,7 12,5 8 5 11 6 ZO 1009,4 0,4 0,0
22.05.2019 11:00:00 13,6 13,3 5 3 9 5 ZO 1009,0 1,0 0,0
22.05.2019 10:00:00 14,1 13,8 4 2 10 5 O 1009,0 10 0,0
22.05.2019 09:00:00 13,3 13,1 6 3 10 5 O 1008,8 7 0,0
22.05.2019 08:00:00 13,7 13,5 3 1 9 5 NW 1008,6 7 0,0
22.05.2019 07:00:00 12,5 12,3 4 2 11 6 N 1008,5 2,9 0,0
22.05.2019 06:00:00 11,7 11,5 6 3 9 5 WNW 1008,5 1,5 0,0
22.05.2019 05:00:00 11,4 11,2 3 2 13 7 N 1008,6 0,2 0,0
22.05.2019 04:00:00 11,2 11,0 8 4 13 7 NO 1008,3 0,4 0,0
22.05.2019 03:00:00 10,9 10,7 4 2 8 4 N 1008,5 0,3 0,0
22.05.2019 02:00:00 10,3 10,1 4 2 21 11 N 1008,6 0,1 0,0
22.05.2019 01:00:00 9,4 9,3 17 9 23 13 NO 1008,9 0,3 0,0
22.05.2019 00:00:00 9,6 9,5 8 4 18 10 NNO 1008,7 0,2 0,0
21.05.2019 23:00:00 10,3 10,1 6 4 12 6 NNO 1008,6 0,2 0,0
21.05.2019 22:00:00 10,1 9,9 6 3 17 9 N 1008,5 0,2 0,0
21.05.2019 21:00:00 10,1 9,9 13 7 21 11 ONO 1008,4 0,2 0,0
21.05.2019 20:00:00 10,3 10,1 14 8 17 9 O 1007,8 0,3 0,0
21.05.2019 19:00:00 10,2 10,0 11 6 18 10 NO 1007,6 0,2 0,0
21.05.2019 18:00:00 10,4 10,2 12 6 18 10 NO 1007,5 0,2 0,0
21.05.2019 17:00:00 10,8 10,3 14 8 17 9 NO 1007,3 1,3 0,0
21.05.2019 16:00:00 10,1 9,8 16 9 20 11 NO 1007,4 1,5 0,0
21.05.2019 15:00:00 10,9 10,4 13 7 20 11 NO 1007,0 0,9 0,0
21.05.2019 14:00:00 11,2 10,3 16 9 22 12 ONO 1006,6 7 0,0
21.05.2019 13:00:00 10,5 10,0 20 11 24 13 NO 1006,5 2,5 0,0
21.05.2019 12:00:00 11,2 10,9 18 10 29 16 NO 1005,8 1,1 0,0
21.05.2019 11:00:00 10,9 10,7 21 12 30 16 NO 1005,6 0,6 0,0
21.05.2019 10:00:00 12,5 11,1 15 8 25 13 NNO 1005,3 10 0,0
21.05.2019 09:00:00 11,3 10,4 13 7 20 11 NNO 1005,2 8 0,0
21.05.2019 08:00:00 10,6 9,8 18 10 37 20 NO 1005,3 8 0,0
21.05.2019 07:00:00 12,2 11,1 23 13 32 18 NO 1004,7 12 0,0
21.05.2019 06:00:00 12,6 11,2 17 9 31 17 NNO 1004,4 12 0,0
21.05.2019 05:00:00 12,5 11,1 19 11 36 19 NNO 1004,7 13 0,0
21.05.2019 04:00:00 12,6 12,0 23 12 34 18 NO 1004,8 11 0,0
21.05.2019 03:00:00 14,4 12,4 21 12 37 20 NO 1005,0 21 0,0
21.05.2019 02:00:00 14,3 12,9 16 9 40 22 NNO 1004,6 17 0,0
21.05.2019 01:00:00 14,1 12,3 32 17 44 24 NO 1005,1 18 0,0
21.05.2019 00:00:00 15,2 13,0 24 13 36 19 NNO 1005,5 25 0,0
20.05.2019 23:00:00 14,1 12,3 26 14 35 19 NO 1005,7 15 0,0
20.05.2019 22:00:00 12,9 11,6 26 14 37 20 NO 1006,2 11 0,0
20.05.2019 21:00:00 13,0 12,1 20 11 33 18 NNO 1005,4 9 0,0
20.05.2019 20:00:00 12,9 11,8 19 11 34 19 NO 1006,0 11 0,0
20.05.2019 19:00:00 12,4 11,9 23 12 33 18 NO 1006,3 7 0,0
20.05.2019 18:00:00 12,0 11,8 18 10 31 17 NO 1006,6 0,7 0,0
20.05.2019 17:00:00 14,6 13,5 15 8 27 15 NNO 1006,7 9 0,0
20.05.2019 16:00:00 13,1 12,2 16 9 30 16 NNO 1006,7 7 0,0
20.05.2019 15:00:00 14,9 13,9 14 7 29 16 NNO 1007,2 7 0,0

tt = temperatuur
td = dauwpunt
ff = windsnelheid
fx = windstoten
dd = windrichting
ppp = luchtdruk
vv = zicht
rr = neerslag

Weerstations in de omgeving